User: anonymous   Login
Location: Cussy
(47.0410°N, 4.6412°E)
Time: 09:33:47
(UTC+00:00)
Language:

SAR-Lupe-4 - Orbit

View from above orbital plane
View from above orbital plane
View from above satellite
View from above satellite

Ground track
Ground track

The orbit data is extracted from the following two-line orbital elements,

1 32750U 08014A   21061.75073174 0.00001500  00000-0  55421-4 0    04
2 32750  98.2082 258.0129 0003103  59.6472 300.3527 15.27758128    01
Epoch (UTC): 02 March 2021 18:01:03
Eccentricity: 0.0003103
inclination: 98.2082°
perigee height: 480 km
apogee height: 484 km
right ascension of ascending node: 258.0129°
argument of perigee: 59.6472°
revolutions per day: 15.27758128
mean anomaly at epoch: 300.3527°
orbit number at epoch: 0

The dashed part of the orbit path shows where the satellite is in the earth's shadow,  

DLR